EW0410 Weather Reports


Display with metric or nautical units.
time (UTC)temp
F
wind
direction
speed
MPH
gust
MPH
rain 1hr
in
rain 24hr
in
rain mn
in
humidity
%
barometer
mb
20190221214558 80 72 4.0 9.0 0.00 0.00 0.00 75 1019.4
20190221213026 81 127 2.0 10.0 0.00 0.00 0.00 75 1019.4
20190221211527 81 139 2.0 6.0 0.00 0.00 0.00 74 1019.4
20190221210043 81 120 1.0 8.0 0.00 0.00 0.00 75 1019.4
20190221204523 81 143 2.0 9.0 0.00 0.00 0.00 73 1019.5
20190221203056 82 147 2.0 9.0 0.00 0.00 0.00 73 1019.5
20190221201519 82 110 3.0 8.0 0.00 0.00 0.00 73 1019.6
20190221200036 81 77 3.0 8.0 0.00 0.00 0.00 73 1019.7
20190221194520 81 160 2.0 11.0 0.00 0.00 0.00 74 1019.7
20190221193008 82 110 6.0 16.0 0.00 0.00 0.00 71 1019.7
20190221191532 82 120 3.0 10.0 0.00 0.00 0.00 72 1019.5
20190221190005 82 134 1.0 13.0 0.00 0.00 0.00 72 1019.5
20190221184513 81 120 5.0 15.0 0.00 0.00 0.00 71 1019.5
20190221183003 81 145 6.0 12.0 0.00 0.00 0.00 71 1019.6
20190221181632 82 90 2.0 14.0 0.00 0.00 0.00 70 1019.7
20190221180242 82 107 2.0 15.0 0.00 0.00 0.00 71 1019.8
20190221174635 82 89 5.0 10.0 0.00 0.00 0.00 70 1020.1
20190221173139 82 152 3.0 11.0 0.00 0.00 0.00 72 1020.4
20190221171618 81 135 7.0 16.0 0.00 0.00 0.00 72 1020.5
20190221170254 82 108 3.0 14.0 0.00 0.00 0.00 72 1020.8
20190221164625 81 148 4.0 12.0 0.00 0.01 0.00 73 1021.1
20190221163215 81 204 9.0 15.0 0.00 0.01 0.00 72 1021.3
20190221161618 81 98 1.0 11.0 0.00 0.01 0.00 74 1021.4
20190221160129 81 125 4.0 16.0 0.00 0.01 0.00 73 1021.6
20190221154648 81 134 6.0 12.0 0.00 0.01 0.00 75 1021.7
20190221153150 80 131 3.0 16.0 0.00 0.01 0.00 75 1021.8
20190221151618 80 145 2.0 10.0 0.00 0.01 0.00 76 1021.8
20190221150120 80 99 1.0 12.0 0.00 0.01 0.00 76 1021.7
20190221144611 80 115 1.0 9.0 0.00 0.01 0.00 78 1021.7
20190221143134 80 139 5.0 14.0 0.00 0.01 0.00 78 1021.7
20190221141609 79 145 3.0 8.0 0.00 0.01 0.00 79 1021.5
20190221140112 79 142 4.0 11.0 0.00 0.01 0.00 79 1021.5
20190221134555 79 125 4.0 12.0 0.00 0.01 0.00 79 1021.4
20190221133110 78 145 2.0 10.0 0.00 0.01 0.00 80 1021.3
20190221131620 78 125 6.0 11.0 0.00 0.01 0.00 80 1021.1
20190221130113 77 146 5.0 11.0 0.00 0.01 0.00 81 1021.0
20190221124549 76 129 4.0 8.0 0.00 0.01 0.00 83 1020.9
20190221123031 76 136 2.0 8.0 0.00 0.01 0.00 83 1020.7
20190221121600 76 87 1.0 9.0 0.00 0.01 0.00 83 1020.7
20190221120049 75 103 4.0 10.0 0.00 0.01 0.00 83 1020.7
20190221114544 75 122 2.0 8.0 0.00 0.01 0.00 83 1020.6
20190221113029 75 148 0.0 0.0 0.00 0.01 0.00 83 1020.6
20190221111522 0 0.0 0.0 0.00 0.01 0.00 1020.4
20190221110039 0 0.0 0.0 0.00 0.01 0.00 1020.3
20190221104510 0 0.0 0.0 0.00 0.01 0.00 1020.1
20190221103013 0 0.0 0.0 0.00 0.01 0.00 1019.8
20190221101513 0 0.0 0.0 0.00 0.01 0.00 1019.7
20190221100015 0 0.0 0.0 0.00 0.01 0.00 1019.6
20190221094618 0 0.0 0.0 0.00 0.01 0.00 1019.4
20190221093012 0 0.0 0.0 0.00 0.01 0.00 1019.4
20190221091507 0 0.0 0.0 0.00 0.01 0.00 1019.4
20190221090200 0 0.0 0.0 0.00 0.01 0.00 1019.2
20190221084904 0 0.0 0.0 0.00 0.01 0.00 1019.2
20190221081649 75 113 3.0 9.0 0.00 0.01 0.00 82 1019.3
20190221080142 75 116 3.0 9.0 0.00 0.01 0.00 82 1019.5
20190221074614 75 70 0.0 10.0 0.00 0.01 0.00 83 1019.6
20190221073112 75 121 2.0 9.0 0.00 0.01 0.00 83 1019.7
20190221071621 75 122 4.0 11.0 0.00 0.01 0.00 83 1019.8
20190221070132 75 124 3.0 10.0 0.00 0.01 0.00 83 1019.8
20190221064631 75 113 1.0 11.0 0.00 0.01 0.00 82 1019.7
20190221063139 75 123 3.0 9.0 0.00 0.01 0.00 83 1019.7
20190221061616 75 136 3.0 10.0 0.00 0.01 0.00 83 1019.8
20190221060122 75 114 4.0 15.0 0.00 0.01 0.00 83 1019.9
20190221054542 75 128 6.0 14.0 0.00 0.01 0.00 82 1020.0
20190221053123 75 127 4.0 11.0 0.00 0.01 0.00 82 1020.1
20190221051646 75 136 5.0 17.0 0.00 0.01 0.00 82 1020.1
20190221050058 75 113 3.0 10.0 0.00 0.01 0.00 83 1020.3
20190221044530 75 155 2.0 9.0 0.00 0.01 0.01 83 1020.4
20190221041524 76 129 3.0 10.0 0.00 0.01 0.01 84 1020.6
20190221040038 76 122 2.0 10.0 0.00 0.01 0.01 83 1020.5
20190221034544 76 127 3.0 11.0 0.00 0.01 0.01 82 1020.6
20190221033110 76 55 3.0 10.0 0.00 0.01 0.01 82 1020.6
20190221031537 76 115 6.0 13.0 0.00 0.01 0.01 82 1020.6
20190221030033 76 147 4.0 14.0 0.00 0.01 0.01 82 1020.5
20190221024522 76 104 4.0 11.0 0.00 0.01 0.01 82 1020.5
20190221023019 76 115 3.0 11.0 0.00 0.01 0.01 82 1020.5
20190221021540 76 77 2.0 9.0 0.00 0.01 0.01 82 1020.5
20190221020027 76 113 3.0 9.0 0.00 0.01 0.01 81 1020.5
20190221014553 76 127 4.0 13.0 0.00 0.01 0.01 82 1020.4
20190221013026 76 136 4.0 13.0 0.00 0.01 0.01 83 1020.3
20190221011518 76 118 2.0 13.0 0.00 0.01 0.01 83 1020.0
20190221010029 76 181 3.0 13.0 0.00 0.01 0.01 83 1019.9
20190221004520 76 145 4.0 12.0 0.00 0.01 0.01 84 1019.7
20190221003036 76 139 4.0 15.0 0.00 0.01 0.01 83 1019.6
20190221001543 76 121 4.0 13.0 0.00 0.01 0.01 83 1019.4
20190221000017 77 80 3.0 12.0 0.00 0.01 0.01 82 1019.3
20190220234516 77 53 2.0 8.0 0.00 0.01 0.01 81 1019.3
20190220233014 77 104 0.0 8.0 0.00 0.01 0.01 79 1019.2
20190220231517 77 129 4.0 9.0 0.00 0.01 0.01 78 1019.3
20190220230007 77 246 2.0 11.0 0.00 0.01 0.01 77 1019.1
20190220224511 78 143 4.0 10.0 0.00 0.01 0.01 77 1019.1
20190220223010 79 111 4.0 10.0 0.00 0.01 0.01 75 1019.1
20190220221507 79 113 3.0 13.0 0.00 0.01 0.01 74 1019.2
20190220220028 79 86 6.0 13.0 0.00 0.01 0.01 75 1019.0